Powrót do katalogu

FREGAT R/B

AktywnyHEO
NORAD 52985·ROCKET BODY·🇷🇺 Russia

Wystrzelony Jul 7, 2022 z Plesetsk Cosmodrome

Loading…

Następne Przeloty (najbliższe 24 godziny)

TLE

ŚwieżeSource: Space-Track

Epoka: Sep 14, 2026, 00:32 UTC

1 52985U 22075B   26257.02242545 -.00000058  00000-0  00000-0 0  9995
2 52985  64.2692 313.7098 0071892 119.6988 241.0911  2.08819176 31947

Śledź FREGAT R/B w czasie rzeczywistym z AllMySat

Download on the App Store